Back to catalog

ARIANE 5 DEB

SPELTRA

AliveGTO
NORAD 27950·DEBRIS·🇫🇷 France

Launched Sep 27, 2003 from Guiana Space Centre

Loading…

TLE

AgingSource: Space-Track

Epoch: Sep 14, 2026, 14:09 UTC

1 27950U 03043D   26257.59026774 -.00000108  00000-0 -89548-4 0  9994
2 27950   7.4189 299.2661 7147853 175.7252 126.6043  2.25002992188744

Track ARIANE 5 DEB in real time with AllMySat

Download on the App Store